Time,TemperatureF,DewpointF,PressureIn,WindDirection,WindDirectionDegrees,WindSpeedMPH,WindSpeedGustMPH,Humidity,HourlyPrecipIn,Conditions,Clouds,dailyrainin,SoftwareType,DateUTC
2013-01-02 00:00:00,25.6,12.5,30.00,SSE,151,2.0,2.0,57,0.00,,,0.00,Wunderground v.1.15,2013-01-02 05:00:00,
2013-01-02 00:05:00,25.7,12.9,30.00,SE,142,2.0,2.0,58,0.00,,,0.00,Wunderground v.1.15,2013-01-02 05:05:00,
2013-01-02 00:10:00,25.7,12.6,30.01,ESE,110,2.0,7.0,57,0.00,,,0.00,Wunderground v.1.15,2013-01-02 05:10:00,
2013-01-02 00:20:00,25.3,12.6,30.00,ESE,105,3.0,3.0,58,0.00,,,0.00,Wunderground v.1.15,2013-01-02 05:20:00,
2013-01-02 00:30:00,24.9,12.2,30.00,SW,235,1.0,1.0,58,0.00,,,0.00,Wunderground v.1.15,2013-01-02 05:30:00,
2013-01-02 00:35:00,25.0,12.7,30.00,SW,235,1.0,3.0,59,0.00,,,0.00,Wunderground v.1.15,2013-01-02 05:35:00,
2013-01-02 00:40:00,25.3,12.2,30.00,ESE,105,2.0,3.0,57,0.00,,,0.00,Wunderground v.1.15,2013-01-02 05:40:00,
2013-01-02 00:50:00,25.4,12.7,30.00,SW,234,2.0,2.0,58,0.00,,,0.00,Wunderground v.1.15,2013-01-02 05:50:00,
2013-01-02 01:00:00,26.3,13.1,30.00,South,170,2.0,2.0,57,0.00,,,0.00,Wunderground v.1.15,2013-01-02 06:00:00,
2013-01-02 01:10:00,25.9,12.3,29.99,North,8,2.0,2.0,56,0.00,,,0.00,Wunderground v.1.15,2013-01-02 06:10:00,
2013-01-02 01:20:00,24.8,11.7,30.00,SE,133,2.0,2.0,57,0.00,,,0.00,Wunderground v.1.15,2013-01-02 06:20:00,
2013-01-02 01:30:00,24.5,11.4,30.00,SSE,160,1.0,3.0,57,0.00,,,0.00,Wunderground v.1.15,2013-01-02 06:30:00,
2013-01-02 01:40:00,25.2,12.1,30.01,SSW,205,3.0,6.0,57,0.00,,,0.00,Wunderground v.1.15,2013-01-02 06:40:00,
2013-01-02 01:50:00,25.5,12.4,30.01,South,182,5.0,5.0,57,0.00,,,0.00,Wunderground v.1.15,2013-01-02 06:50:00,
2013-01-02 02:00:00,25.6,12.5,30.01,South,180,4.0,11.0,57,0.00,,,-99.99,WeatherLink 6.0.2,2013-01-02 07:00:00,
2013-01-02 02:10:00,25.7,12.9,30.01,South,182,3.0,3.0,58,0.00,,,0.00,Wunderground v.1.15,2013-01-02 07:10:00,
2013-01-02 02:20:00,25.5,12.4,30.01,SW,219,4.0,5.0,57,0.00,,,0.00,Wunderground v.1.15,2013-01-02 07:20:00,
2013-01-02 02:30:00,25.4,12.3,30.01,SSW,201,5.0,5.0,57,0.00,,,0.00,Wunderground v.1.15,2013-01-02 07:30:00,
2013-01-02 02:40:00,25.5,12.4,30.01,SW,214,4.0,5.0,57,0.00,,,0.00,Wunderground v.1.15,2013-01-02 07:40:00,
2013-01-02 02:50:00,25.5,12.8,30.01,South,182,4.0,5.0,58,0.00,,,0.00,Wunderground v.1.15,2013-01-02 07:50:00,
2013-01-02 03:00:00,25.6,12.9,30.01,SSW,211,3.0,3.0,58,0.00,,,0.00,Wunderground v.1.15,2013-01-02 08:00:00,
2013-01-02 03:10:00,24.4,12.1,30.01,SSW,207,1.0,1.0,59,0.00,,,0.00,Wunderground v.1.15,2013-01-02 08:10:00,
2013-01-02 03:20:00,23.3,11.8,30.01,ENE,57,1.0,4.0,61,0.00,,,0.00,Wunderground v.1.15,2013-01-02 08:20:00,
2013-01-02 03:30:00,22.8,12.1,30.01,North,7,2.0,3.0,63,0.00,,,0.00,Wunderground v.1.15,2013-01-02 08:30:00,
2013-01-02 03:40:00,22.7,12.3,30.01,NE,50,2.0,2.0,64,0.00,,,0.00,Wunderground v.1.15,2013-01-02 08:40:00,
2013-01-02 03:50:00,22.5,12.1,30.02,WNW,290,1.0,1.0,64,0.00,,,0.00,Wunderground v.1.15,2013-01-02 08:50:00,
2013-01-02 04:00:00,22.4,12.4,30.01,SSW,196,1.0,1.0,65,0.00,,,0.00,Wunderground v.1.15,2013-01-02 09:00:00,
2013-01-02 04:10:00,22.5,12.5,30.01,ESE,122,1.0,2.0,65,0.00,,,0.00,Wunderground v.1.15,2013-01-02 09:10:00,
2013-01-02 04:20:00,22.8,13.8,30.02,South,176,2.0,5.0,68,0.00,,,0.00,Wunderground v.1.15,2013-01-02 09:20:00,
2013-01-02 04:30:00,24.2,14.5,30.01,South,180,2.0,3.0,66,0.00,,,0.00,Wunderground v.1.15,2013-01-02 09:30:00,
2013-01-02 04:40:00,24.3,14.2,30.02,SW,234,3.0,3.0,65,0.00,,,0.00,Wunderground v.1.15,2013-01-02 09:40:00,
2013-01-02 04:50:00,24.0,13.6,30.02,SSW,206,2.0,2.0,64,0.00,,,0.00,Wunderground v.1.15,2013-01-02 09:50:00,
2013-01-02 05:00:00,23.7,13.3,30.02,SW,225,2.0,8.0,64,0.00,,,-99.99,WeatherLink 6.0.2,2013-01-02 10:00:00,
2013-01-02 05:10:00,22.7,12.7,30.01,East,97,2.0,2.0,65,0.00,,,0.00,Wunderground v.1.15,2013-01-02 10:10:00,
2013-01-02 05:20:00,22.1,12.5,30.01,ESE,123,1.0,1.0,66,0.00,,,0.00,Wunderground v.1.15,2013-01-02 10:20:00,
2013-01-02 05:30:00,22.3,13.0,30.01,SE,137,1.0,1.0,67,0.00,,,0.00,Wunderground v.1.15,2013-01-02 10:30:00,
2013-01-02 05:40:00,21.9,12.6,30.01,South,169,2.0,2.0,67,0.00,,,0.00,Wunderground v.1.15,2013-01-02 10:40:00,
2013-01-02 05:50:00,21.7,12.4,30.01,NNE,30,1.0,2.0,67,0.00,,,0.00,Wunderground v.1.15,2013-01-02 10:50:00,
2013-01-02 06:00:00,21.9,12.6,30.01,North,0,2.0,7.0,67,0.00,,,-99.99,WeatherLink 6.0.2,2013-01-02 11:00:00,
2013-01-02 06:10:00,21.6,12.7,30.01,NW,304,1.0,2.0,68,0.00,,,0.00,Wunderground v.1.15,2013-01-02 11:10:00,
2013-01-02 06:20:00,21.4,12.5,30.01,West,280,1.0,1.0,68,0.00,,,0.00,Wunderground v.1.15,2013-01-02 11:20:00,
2013-01-02 06:30:00,21.4,12.5,30.01,NNE,13,1.0,1.0,68,0.00,,,0.00,Wunderground v.1.15,2013-01-02 11:30:00,
2013-01-02 06:40:00,21.4,12.8,30.02,NNE,31,1.0,1.0,69,0.00,,,0.00,Wunderground v.1.15,2013-01-02 11:40:00,
2013-01-02 06:50:00,21.3,12.4,30.01,NE,49,1.0,1.0,68,0.00,,,0.00,Wunderground v.1.15,2013-01-02 11:50:00,
2013-01-02 07:00:00,21.5,12.6,30.02,NNW,327,1.0,1.0,68,0.00,,,0.00,Wunderground v.1.15,2013-01-02 12:00:00,
2013-01-02 07:10:00,21.9,13.0,30.02,SW,219,1.0,1.0,68,0.00,,,0.00,Wunderground v.1.15,2013-01-02 12:10:00,
2013-01-02 07:20:00,22.3,13.0,30.02,South,189,0.0,0.0,67,0.00,,,0.00,Wunderground v.1.15,2013-01-02 12:20:00,
2013-01-02 07:30:00,22.1,13.5,30.02,SW,217,0.0,2.0,69,0.00,,,0.00,Wunderground v.1.15,2013-01-02 12:30:00,
2013-01-02 07:40:00,23.0,14.0,30.02,SW,225,2.0,2.0,68,0.00,,,0.00,Wunderground v.1.15,2013-01-02 12:40:00,
2013-01-02 07:50:00,23.8,14.4,30.03,SSW,209,3.0,3.0,67,0.00,,,0.00,Wunderground v.1.15,2013-01-02 12:50:00,
2013-01-02 08:00:00,23.6,13.9,30.03,SW,220,2.0,2.0,66,0.00,,,0.00,Wunderground v.1.15,2013-01-02 13:00:00,
2013-01-02 08:10:00,23.1,12.7,30.03,SSE,165,1.0,1.0,64,0.00,,,0.00,Wunderground v.1.15,2013-01-02 13:10:00,
2013-01-02 08:20:00,23.2,12.5,30.04,SSW,198,1.0,7.0,63,0.00,,,0.00,Wunderground v.1.15,2013-01-02 13:20:00,
2013-01-02 08:30:00,24.0,13.6,30.05,South,190,3.0,7.0,64,0.00,,,0.00,Wunderground v.1.15,2013-01-02 13:30:00,
2013-01-02 08:40:00,25.0,13.4,30.04,SW,230,4.0,4.0,61,0.00,,,0.00,Wunderground v.1.15,2013-01-02 13:40:00,
2013-01-02 08:50:00,25.1,13.2,30.05,South,189,2.0,2.0,60,0.00,,,0.00,Wunderground v.1.15,2013-01-02 13:50:00,
2013-01-02 09:00:00,25.3,13.3,30.05,South,172,3.0,3.0,60,0.00,,,0.00,Wunderground v.1.15,2013-01-02 14:00:00,
2013-01-02 09:10:00,25.2,12.9,30.05,SSE,168,3.0,3.0,59,0.00,,,0.00,Wunderground v.1.15,2013-01-02 14:10:00,
2013-01-02 09:20:00,25.8,13.0,30.06,SE,146,5.0,5.0,58,0.00,,,0.00,Wunderground v.1.15,2013-01-02 14:20:00,
2013-01-02 09:30:00,25.7,12.9,30.06,SSE,151,5.0,5.0,58,0.00,,,0.00,Wunderground v.1.15,2013-01-02 14:30:00,
2013-01-02 09:40:00,24.7,12.0,30.06,WNW,285,2.0,2.0,58,0.00,,,0.00,Wunderground v.1.15,2013-01-02 14:40:00,
2013-01-02 09:50:00,25.4,13.4,30.06,West,260,2.0,2.0,60,0.00,,,0.00,Wunderground v.1.15,2013-01-02 14:50:00,
2013-01-02 10:00:00,25.2,13.2,30.07,SW,225,1.0,6.0,60,0.00,,,-99.99,WeatherLink 6.0.2,2013-01-02 15:00:00,
2013-01-02 10:10:00,26.6,14.2,30.06,WSW,245,3.0,4.0,59,0.00,,,0.00,Wunderground v.1.15,2013-01-02 15:10:00,
2013-01-02 10:20:00,28.3,14.6,30.06,SW,232,4.0,4.0,56,0.00,,,0.00,Wunderground v.1.15,2013-01-02 15:20:00,
2013-01-02 10:30:00,29.3,14.3,30.06,SSW,203,5.0,7.0,53,0.00,,,0.00,Wunderground v.1.15,2013-01-02 15:30:00,
2013-01-02 10:40:00,29.3,15.1,30.06,South,190,5.0,5.0,55,0.00,,,0.00,Wunderground v.1.15,2013-01-02 15:40:00,
2013-01-02 10:50:00,28.8,14.2,30.05,SSW,201,5.0,5.0,54,0.00,,,0.00,Wunderground v.1.15,2013-01-02 15:50:00,
2013-01-02 11:00:00,29.0,14.4,30.05,SW,230,4.0,4.0,54,0.00,,,0.00,Wunderground v.1.15,2013-01-02 16:00:00,
2013-01-02 11:10:00,30.1,15.4,30.05,SSW,207,6.0,6.0,54,0.00,,,0.00,Wunderground v.1.15,2013-01-02 16:10:00,
2013-01-02 11:20:00,29.9,15.3,30.04,SW,218,5.0,5.0,54,0.00,,,0.00,Wunderground v.1.15,2013-01-02 16:20:00,
2013-01-02 11:30:00,29.7,15.1,30.03,SSE,165,6.0,8.0,54,0.00,,,0.00,Wunderground v.1.15,2013-01-02 16:30:00,
2013-01-02 11:40:00,30.2,16.4,30.03,SSW,205,5.0,5.0,56,0.00,,,0.00,Wunderground v.1.15,2013-01-02 16:40:00,
2013-01-02 11:50:00,-999.9,-99.9,30.02,North,32767,-999.0,0.0,255,-99.99,,,0.00,Wunderground v.1.15,2013-01-02 16:50:00,
2013-01-02 12:00:00,-999.9,-99.9,30.02,North,32767,-999.0,0.0,255,-99.99,,,0.00,Wunderground v.1.15,2013-01-02 17:00:00,
2013-01-02 12:10:00,-999.9,-99.9,30.01,North,32767,-999.0,0.0,255,-99.99,,,0.00,Wunderground v.1.15,2013-01-02 17:10:00,
2013-01-02 12:20:00,-999.9,-99.9,30.02,North,32767,-999.0,0.0,255,-99.99,,,0.00,Wunderground v.1.15,2013-01-02 17:20:00,
2013-01-02 12:30:00,-999.9,-99.9,30.01,North,32767,-999.0,0.0,255,-99.99,,,0.00,Wunderground v.1.15,2013-01-02 17:30:00,
2013-01-02 12:40:00,30.8,15.2,30.01,SSW,213,4.0,4.0,52,0.00,,,0.00,Wunderground v.1.15,2013-01-02 17:40:00,
2013-01-02 12:50:00,31.2,15.6,30.01,ESE,105,4.0,5.0,52,0.00,,,0.00,Wunderground v.1.15,2013-01-02 17:50:00,
2013-01-02 13:00:00,31.6,16.0,30.01,SSW,202,4.0,12.0,52,0.00,,,-99.99,WeatherLink 6.0.2,2013-01-02 18:00:00,
2013-01-02 13:10:00,32.0,15.9,30.00,WSW,250,4.0,4.0,51,0.00,,,0.00,Wunderground v.1.15,2013-01-02 18:10:00,
2013-01-02 13:20:00,31.5,15.9,30.00,SE,132,3.0,4.0,52,0.00,,,0.00,Wunderground v.1.15,2013-01-02 18:20:00,
2013-01-02 13:30:00,32.4,16.3,30.01,South,190,4.0,6.0,51,0.00,,,0.00,Wunderground v.1.15,2013-01-02 18:30:00,
2013-01-02 13:40:00,32.8,16.2,30.01,East,82,4.0,4.0,50,0.00,,,0.00,Wunderground v.1.15,2013-01-02 18:40:00,
2013-01-02 13:50:00,32.2,16.1,30.02,NW,311,4.0,4.0,51,0.00,,,0.00,Wunderground v.1.15,2013-01-02 18:50:00,
2013-01-02 14:00:00,31.3,16.1,30.02,ESE,102,2.0,3.0,53,0.00,,,0.00,Wunderground v.1.15,2013-01-02 19:00:00,
2013-01-02 14:10:00,31.3,16.1,30.02,ENE,68,2.0,3.0,53,0.00,,,0.00,Wunderground v.1.15,2013-01-02 19:10:00,
2013-01-02 14:20:00,31.5,16.3,30.03,ENE,64,1.0,1.0,53,0.00,,,0.00,Wunderground v.1.15,2013-01-02 19:20:00,
2013-01-02 14:30:00,31.8,16.2,30.03,WSW,237,3.0,10.0,52,0.00,,,0.00,Wunderground v.1.15,2013-01-02 19:30:00,
2013-01-02 14:40:00,33.0,16.8,30.02,SSW,207,3.0,4.0,51,0.00,,,0.00,Wunderground v.1.15,2013-01-02 19:40:00,
2013-01-02 14:50:00,33.3,17.1,30.03,South,172,4.0,6.0,51,0.00,,,0.00,Wunderground v.1.15,2013-01-02 19:50:00,
2013-01-02 15:00:00,33.4,16.7,30.04,South,181,5.0,5.0,50,0.00,,,0.00,Wunderground v.1.15,2013-01-02 20:00:00,
2013-01-02 15:10:00,33.6,17.4,30.04,WNW,292,4.0,9.0,51,0.00,,,0.00,Wunderground v.1.15,2013-01-02 20:10:00,
2013-01-02 15:20:00,33.7,16.5,30.04,SSW,194,5.0,5.0,49,0.00,,,0.00,Wunderground v.1.15,2013-01-02 20:20:00,
2013-01-02 15:30:00,33.3,16.2,30.04,SE,128,2.0,2.0,49,0.00,,,0.00,Wunderground v.1.15,2013-01-02 20:30:00,
2013-01-02 15:40:00,32.2,16.1,30.04,East,92,3.0,5.0,51,0.00,,,0.00,Wunderground v.1.15,2013-01-02 20:40:00,
2013-01-02 15:50:00,32.3,16.2,30.05,North,351,2.0,3.0,51,0.00,,,0.00,Wunderground v.1.15,2013-01-02 20:50:00,
2013-01-02 16:00:00,32.1,16.9,30.05,SSE,151,3.0,3.0,53,0.00,,,0.00,Wunderground v.1.15,2013-01-02 21:00:00,
2013-01-02 16:10:00,32.7,16.5,30.06,SSW,207,5.0,6.0,51,0.00,,,0.00,Wunderground v.1.15,2013-01-02 21:10:00,
2013-01-02 16:20:00,32.5,15.9,30.06,North,1,3.0,3.0,50,0.00,,,0.00,Wunderground v.1.15,2013-01-02 21:20:00,
2013-01-02 16:30:00,32.8,17.1,30.06,SSW,202,3.0,11.0,52,0.00,,,-99.99,WeatherLink 6.0.2,2013-01-02 21:30:00,
2013-01-02 16:40:00,32.3,17.1,30.06,SSW,192,2.0,5.0,53,0.00,,,0.00,Wunderground v.1.15,2013-01-02 21:40:00,
2013-01-02 16:50:00,31.7,16.9,30.07,ESE,103,2.0,2.0,54,0.00,,,0.00,Wunderground v.1.15,2013-01-02 21:50:00,
2013-01-02 17:00:00,31.4,17.1,30.07,SSE,157,2.0,3.0,55,0.00,,,0.00,Wunderground v.1.15,2013-01-02 22:00:00,
2013-01-02 17:10:00,31.9,17.1,30.08,South,187,3.0,3.0,54,0.00,,,0.00,Wunderground v.1.15,2013-01-02 22:10:00,
2013-01-02 17:20:00,31.4,17.5,30.08,SW,220,3.0,3.0,56,0.00,,,0.00,Wunderground v.1.15,2013-01-02 22:20:00,
2013-01-02 17:30:00,31.7,16.9,30.08,SSE,158,2.0,3.0,54,0.00,,,0.00,Wunderground v.1.15,2013-01-02 22:30:00,
2013-01-02 17:40:00,31.4,17.1,30.09,SSW,194,3.0,3.0,55,0.00,,,0.00,Wunderground v.1.15,2013-01-02 22:40:00,
2013-01-02 17:50:00,31.4,17.1,30.09,SW,232,3.0,3.0,55,0.00,,,0.00,Wunderground v.1.15,2013-01-02 22:50:00,
2013-01-02 18:00:00,31.3,17.4,30.09,SSE,154,4.0,4.0,56,0.00,,,0.00,Wunderground v.1.15,2013-01-02 23:00:00,
2013-01-02 18:10:00,31.1,17.2,30.09,South,184,3.0,4.0,56,0.00,,,0.00,Wunderground v.1.15,2013-01-02 23:10:00,
2013-01-02 18:20:00,31.1,17.6,30.10,South,182,3.0,7.0,57,0.00,,,0.00,Wunderground v.1.15,2013-01-02 23:20:00,
2013-01-02 18:30:00,31.5,17.6,30.11,SW,223,3.0,3.0,56,0.00,,,0.00,Wunderground v.1.15,2013-01-02 23:30:00,
2013-01-02 18:40:00,31.2,17.7,30.11,SW,232,3.0,3.0,57,0.00,,,0.00,Wunderground v.1.15,2013-01-02 23:40:00,
2013-01-02 18:50:00,31.1,17.6,30.11,SW,230,3.0,3.0,57,0.00,,,0.00,Wunderground v.1.15,2013-01-02 23:50:00,
2013-01-02 19:00:00,31.7,17.8,30.11,SSW,203,4.0,4.0,56,0.00,,,0.00,Wunderground v.1.15,2013-01-03 00:00:00,
2013-01-02 19:10:00,31.9,18.0,30.12,SW,226,5.0,5.0,56,0.00,,,0.00,Wunderground v.1.15,2013-01-03 00:10:00,
2013-01-02 19:20:00,31.8,18.3,30.11,South,183,4.0,4.0,57,0.00,,,0.00,Wunderground v.1.15,2013-01-03 00:20:00,
2013-01-02 19:30:00,31.3,18.2,30.11,SSW,198,3.0,3.0,58,0.00,,,0.00,Wunderground v.1.15,2013-01-03 00:30:00,
2013-01-02 19:40:00,31.8,18.7,30.11,SSW,203,4.0,4.0,58,0.00,,,0.00,Wunderground v.1.15,2013-01-03 00:40:00,
2013-01-02 19:50:00,31.8,18.3,30.11,South,185,4.0,5.0,57,0.00,,,0.00,Wunderground v.1.15,2013-01-03 00:50:00,
2013-01-02 20:00:00,31.3,17.8,30.11,SSE,167,4.0,8.0,57,0.00,,,0.00,Wunderground v.1.15,2013-01-03 01:00:00,
2013-01-02 20:10:00,30.5,17.9,30.11,South,181,4.0,5.0,59,0.00,,,0.00,Wunderground v.1.15,2013-01-03 01:10:00,
2013-01-02 20:20:00,30.9,18.6,30.11,SSW,193,4.0,4.0,60,0.00,,,0.00,Wunderground v.1.15,2013-01-03 01:20:00,
2013-01-02 20:30:00,30.9,18.2,30.11,South,180,3.0,3.0,59,0.00,,,0.00,Wunderground v.1.15,2013-01-03 01:30:00,
2013-01-02 20:40:00,31.1,18.8,30.11,SSW,205,2.0,2.0,60,0.00,,,0.00,Wunderground v.1.15,2013-01-03 01:40:00,
2013-01-02 20:50:00,31.3,18.6,30.12,WSW,239,4.0,4.0,59,0.00,,,0.00,Wunderground v.1.15,2013-01-03 01:50:00,
2013-01-02 21:00:00,30.6,18.7,30.12,South,178,4.0,4.0,61,0.00,,,0.00,Wunderground v.1.15,2013-01-03 02:00:00,
2013-01-02 21:10:00,30.5,18.6,30.12,SW,217,3.0,3.0,61,0.00,,,0.00,Wunderground v.1.15,2013-01-03 02:10:00,
2013-01-02 21:20:00,30.7,19.2,30.13,SW,215,3.0,3.0,62,0.00,,,0.00,Wunderground v.1.15,2013-01-03 02:20:00,
2013-01-02 21:30:00,30.5,19.0,30.13,South,176,2.0,2.0,62,0.00,,,0.00,Wunderground v.1.15,2013-01-03 02:30:00,
2013-01-02 21:40:00,30.3,18.8,30.14,SSW,209,2.0,5.0,62,0.00,,,0.00,Wunderground v.1.15,2013-01-03 02:40:00,
2013-01-02 21:50:00,30.3,19.2,30.14,SW,220,3.0,3.0,63,0.00,,,0.00,Wunderground v.1.15,2013-01-03 02:50:00,
2013-01-02 22:00:00,30.7,19.2,30.14,SW,221,2.0,4.0,62,0.00,,,0.00,Wunderground v.1.15,2013-01-03 03:00:00,
2013-01-02 22:10:00,31.3,19.4,30.14,SW,215,3.0,3.0,61,0.00,,,0.00,Wunderground v.1.15,2013-01-03 03:10:00,
2013-01-02 22:20:00,30.6,19.1,30.14,SSW,205,2.0,2.0,62,0.00,,,0.00,Wunderground v.1.15,2013-01-03 03:20:00,
2013-01-02 22:30:00,30.1,19.0,30.15,South,190,2.0,2.0,63,0.00,,,0.00,Wunderground v.1.15,2013-01-03 03:30:00,
2013-01-02 22:50:00,29.3,18.6,30.16,SW,224,1.0,1.0,64,0.00,,,0.00,Wunderground v.1.15,2013-01-03 03:50:00,
2013-01-02 23:00:00,29.4,19.1,30.16,SSW,202,1.0,6.0,65,0.00,,,-99.99,WeatherLink 6.0.2,2013-01-03 04:00:00,
2013-01-02 23:10:00,29.6,19.3,30.16,SSW,192,2.0,2.0,65,0.00,,,0.00,Wunderground v.1.15,2013-01-03 04:10:00,
2013-01-02 23:20:00,29.4,19.1,30.16,SSE,150,1.0,1.0,65,0.00,,,0.00,Wunderground v.1.15,2013-01-03 04:20:00,
2013-01-02 23:30:00,29.2,18.9,30.16,SSW,198,1.0,1.0,65,0.00,,,0.00,Wunderground v.1.15,2013-01-03 04:30:00,
2013-01-02 23:40:00,28.7,19.1,30.16,SW,219,1.0,1.0,67,0.00,,,0.00,Wunderground v.1.15,2013-01-03 04:40:00,
2013-01-02 23:50:00,28.7,18.8,30.16,SE,146,1.0,3.0,66,0.00,,,0.00,Wunderground v.1.15,2013-01-03 04:50:00,